Location: Chuathbaluk
(61.5726°N, 159.2454°W)
Time: 23:09:05
(UTC+00:00)

Transit 4A - Pass Details

Date: 02 December 2020
Orbit: 864 x 980 km, 66.8° (Epoch: 20 January)

Event Time Altitude Azimuth Distance (km) Brightness Sun altitude
Rises 20:27:13 0° 250° (WSW) 3,671 10.9 2.9°
Reaches altitude 10° 20:29:47 10° 253° (WSW) 2,732 10.3 3.1°
Maximum altitude 20:36:11 68° 336° (NNW) 1,057 8.1 3.4°
Drops below altitude 10° 20:42:36 10° 60° (ENE) 2,733 10.3 3.7°
Sets 20:45:11 0° 64° (ENE) 3,673 11.0 3.9°
